Weather History for KVIS - April, 2014

Change the Weather History Date:

Wednesday, April 9, 2014

  Actual Average (KHJO) Record (KHJO)
Temperature  
Mean Temperature 70 °F 59 °F  
Max Temperature 87 °F 73 °F 88 °F (2014)
Min Temperature 53 °F 45 °F 35 °F (2008)
Degree Days  
Heating Degree Days 0    
Month to date heating degree days  
Since 1 July heating degree days  
Cooling Degree Days 5    
Month to date cooling degree days  
Year to date cooling degree days  
Growing Degree Days 20 (Base 50)    
Moisture  
Dew Point 48 °F    
Average Humidity 50    
Maximum Humidity 72    
Minimum Humidity 22    
Precipitation  
Precipitation 0.00 in 0.02 in 0.04 in (2001)
Month to date precipitation 0.23  
Year to date precipitation 5.63  
Snow  
Snow 0.00 in - - ()
Month to date snowfall  
Since 1 July snowfall  
Snow Depth -    
Sea Level Pressure  
Sea Level Pressure 29.99 in    
Wind  
Wind Speed 3 mph (South)    
Max Wind Speed 7 mph    
Max Gust Speed -    
Visibility 10 miles    
Events      
T = Trace of Precipitation, MM = Missing Value Source: NWS Daily Summary

Daily Weather History Graph

Daily Weather History Graph

Search for Another Location

Airport or City:

Trip Planner

Search our weather history database for the weather conditions in past years. The results will help you decide how hot, cold, wet, or windy it might be!

Date:

Astronomy

Apr. 09, 2014 Rise Set
Actual Time 6:32 AM PDT 7:26 PM PDT
Civil Twilight 6:05 AM PDT 7:52 PM PDT
Nautical Twilight 5:34 AM PDT 8:23 PM PDT
Astronomical Twilight 5:02 AM PDT 8:56 PM PDT
Moon 2:27 PM PDT (4/9) 3:15 AM PDT (4/9)
Length of Visible Light 13h 46m
Length of Day
12h 54m
Waxing Gibbous, 72% of the Moon is Illuminated
Apr 9
Waxing Gibbous
Apr 15
Full
Apr 22
Last Quarter
Apr 28
New
May 6
First Quarter

Hourly Weather History & Observations

Time (PDT) Temp. Heat Index Dew Point Humidity Pressure Visibility Wind Dir Wind Speed Gust Speed Precip Events Conditions
12:15 AM 64.4 °F - 50.0 °F 59% 30.02 in 10.0 mi ESE 3.5 mph - N/A   Clear
12:35 AM 64.4 °F - 48.2 °F 56% 30.02 in 10.0 mi Calm Calm - N/A   Clear
12:55 AM 64.4 °F - 48.2 °F 56% 30.02 in 10.0 mi Calm Calm - N/A   Clear
1:15 AM 62.6 °F - 48.2 °F 59% 30.01 in 10.0 mi SSE 3.5 mph - N/A   Clear
1:35 AM 59.0 °F - 46.4 °F 63% 30.02 in 10.0 mi SE 3.5 mph - N/A   Clear
1:55 AM 60.8 °F - 48.2 °F 63% 30.02 in 10.0 mi ESE 5.8 mph - N/A   Clear
2:15 AM 60.8 °F - 48.2 °F 63% 30.02 in 10.0 mi Calm Calm - N/A   Clear
2:35 AM 60.8 °F - 48.2 °F 63% 30.01 in 10.0 mi ESE 4.6 mph - N/A   Clear
2:55 AM 57.2 °F - 46.4 °F 67% 30.01 in 10.0 mi East 4.6 mph - N/A   Clear
3:15 AM 57.2 °F - 46.4 °F 67% 30.01 in 10.0 mi ESE 5.8 mph - N/A   Clear
3:35 AM 55.4 °F - 46.4 °F 72% 30.00 in 10.0 mi SE 4.6 mph - N/A   Clear
3:55 AM 55.4 °F - 46.4 °F 72% 30.00 in 10.0 mi SE 3.5 mph - N/A   Clear
4:15 AM 55.4 °F - 46.4 °F 72% 30.00 in 10.0 mi SSE 5.8 mph - N/A   Clear
4:35 AM 55.4 °F - 46.4 °F 72% 30.00 in 10.0 mi Calm Calm - N/A   Clear
4:55 AM 55.4 °F - 46.4 °F 72% 30.00 in 10.0 mi Calm Calm - N/A   Clear
5:15 AM 55.4 °F - 46.4 °F 72% 30.00 in 10.0 mi East 4.6 mph - N/A   Clear
5:35 AM 55.4 °F - 44.6 °F 67% 30.00 in 10.0 mi ESE 3.5 mph - N/A   Clear
5:55 AM 55.4 °F - 44.6 °F 67% 30.01 in 10.0 mi Calm Calm - N/A   Clear
6:15 AM 53.6 °F - 44.6 °F 72% 30.01 in 10.0 mi ESE 3.5 mph - N/A   Clear
6:35 AM 53.6 °F - 42.8 °F 67% 30.02 in 10.0 mi SE 4.6 mph - N/A   Clear
6:55 AM 53.6 °F - 42.8 °F 67% 30.02 in 10.0 mi SSE 4.6 mph - N/A   Clear
7:15 AM 53.6 °F - 44.6 °F 72% 30.03 in 10.0 mi SE 4.6 mph - N/A   Clear
7:35 AM 55.4 °F - 44.6 °F 67% 30.03 in 10.0 mi SSE 4.6 mph - N/A   Clear
7:55 AM 57.2 °F - 46.4 °F 67% 30.04 in 8.0 mi SSE 4.6 mph - N/A   Clear
8:15 AM 57.2 °F - 46.4 °F 67% 30.04 in 9.0 mi South 4.6 mph - N/A   Clear
8:35 AM 60.8 °F - 48.2 °F 63% 30.04 in 10.0 mi South 4.6 mph - N/A   Clear
8:55 AM 60.8 °F - 50.0 °F 68% 30.05 in 10.0 mi South 4.6 mph - N/A   Clear
9:15 AM 62.6 °F - 51.8 °F 68% 30.05 in 10.0 mi SSE 4.6 mph - N/A   Clear
9:35 AM 64.4 °F - 50.0 °F 59% 30.05 in 10.0 mi SSE 5.8 mph - N/A   Clear
9:55 AM 66.2 °F - 51.8 °F 60% 30.05 in 10.0 mi South 6.9 mph - N/A   Clear
10:15 AM 66.2 °F - 51.8 °F 60% 30.06 in 10.0 mi South 5.8 mph - N/A   Clear
10:35 AM 68.0 °F - 51.8 °F 56% 30.06 in 10.0 mi SSW 4.6 mph - N/A   Clear
10:55 AM 71.6 °F - 51.8 °F 50% 30.05 in 10.0 mi South 5.8 mph - N/A   Clear
11:15 AM 71.6 °F - 53.6 °F 53% 30.06 in 10.0 mi South 4.6 mph - N/A   Clear
11:35 AM 73.4 °F - 53.6 °F 50% 30.05 in 8.0 mi SSW 6.9 mph - N/A   Clear
11:55 AM 75.2 °F - 53.6 °F 47% 30.04 in 10.0 mi South 3.5 mph - N/A   Clear
12:15 PM 77.0 °F - 53.6 °F 44% 30.04 in 10.0 mi SW 4.6 mph - N/A   Clear
12:35 PM 78.8 °F - 53.6 °F 42% 30.03 in 10.0 mi WSW 4.6 mph - N/A   Clear
12:55 PM 78.8 °F - 53.6 °F 42% 30.02 in 10.0 mi South 5.8 mph - N/A   Clear
1:15 PM 80.6 °F 80.5 °F 55.4 °F 42% 30.01 in 10.0 mi SSW 5.8 mph - N/A   Clear
1:35 PM 80.6 °F 80.5 °F 55.4 °F 42% 30.00 in 10.0 mi South 4.6 mph - N/A   Clear
1:55 PM 82.4 °F 81.4 °F 53.6 °F 37% 29.99 in 10.0 mi South 3.5 mph - N/A   Clear
2:15 PM 84.2 °F 82.8 °F 53.6 °F 35% 29.97 in 10.0 mi SW 4.6 mph - N/A   Clear
2:35 PM 86.0 °F 84.2 °F 53.6 °F 33% 29.97 in 10.0 mi WNW 5.8 mph - N/A   Clear
2:55 PM 86.0 °F - 50.0 °F 29% 29.95 in 10.0 mi West 5.8 mph - N/A   Clear
3:15 PM 87.8 °F - 48.2 °F 25% 29.96 in 10.0 mi NW 5.8 mph - N/A   Clear
3:35 PM 87.8 °F - 44.6 °F 22% 29.95 in 10.0 mi WNW 3.5 mph - N/A   Clear
3:55 PM 87.8 °F - 46.4 °F 24% 29.93 in 10.0 mi WNW 5.8 mph - N/A   Clear
4:15 PM 87.8 °F - 46.4 °F 24% 29.93 in 10.0 mi West 4.6 mph - N/A   Clear
4:35 PM 87.8 °F - 46.4 °F 24% 29.94 in 10.0 mi West 5.8 mph - N/A   Clear
4:55 PM 86.0 °F - 44.6 °F 23% 29.93 in 10.0 mi Calm Calm - N/A   Clear
5:15 PM 86.0 °F - 42.8 °F 22% 29.93 in 10.0 mi Calm Calm - N/A   Clear
5:35 PM 86.0 °F - 44.6 °F 23% 29.92 in 10.0 mi WNW 5.8 mph - N/A   Clear
5:55 PM 86.0 °F - 44.6 °F 23% 29.92 in 10.0 mi West 4.6 mph - N/A   Clear
6:15 PM 84.2 °F - 42.8 °F 23% 29.92 in 10.0 mi WNW 5.8 mph - N/A   Clear
6:35 PM 84.2 °F - 46.4 °F 27% 29.92 in 10.0 mi WNW 3.5 mph - N/A   Clear
6:55 PM 82.4 °F - 42.8 °F 25% 29.92 in 10.0 mi NNW 6.9 mph - N/A   Clear
7:15 PM 82.4 °F - 42.8 °F 25% 29.91 in 10.0 mi North 3.5 mph - N/A   Clear
7:35 PM 80.6 °F - 42.8 °F 26% 29.91 in 10.0 mi North 3.5 mph - N/A   Clear
7:55 PM 77.0 °F - 46.4 °F 34% 29.90 in 10.0 mi Calm Calm - N/A   Clear
8:15 PM 75.2 °F - 46.4 °F 36% 29.90 in 10.0 mi Calm Calm - N/A   Clear
8:35 PM 73.4 °F - 44.6 °F 36% 29.91 in 10.0 mi NNE 4.6 mph - N/A   Clear
8:55 PM 69.8 °F - 48.2 °F 46% 29.93 in 10.0 mi Calm Calm - N/A   Clear
9:15 PM 71.6 °F - 48.2 °F 43% 29.94 in 10.0 mi Calm Calm - N/A   Clear
9:35 PM 69.8 °F - 48.2 °F 46% 29.95 in 10.0 mi Calm Calm - N/A   Clear
9:55 PM 69.8 °F - 48.2 °F 46% 29.96 in 10.0 mi Calm Calm - N/A   Clear
10:15 PM 69.8 °F - 48.2 °F 46% 29.96 in 10.0 mi Calm Calm - N/A   Clear
10:35 PM 66.2 °F - 48.2 °F 52% 29.96 in 10.0 mi Calm Calm - N/A   Clear
10:55 PM 66.2 °F - 48.2 °F 52% 29.96 in 10.0 mi Calm Calm - N/A   Clear
11:15 PM 66.2 °F - 48.2 °F 52% 29.96 in 10.0 mi Calm Calm - N/A   Clear
11:35 PM 64.4 °F - 48.2 °F 56% 29.96 in 10.0 mi Calm Calm - N/A   Clear
11:55 PM 64.4 °F - 48.2 °F 56% 29.96 in 10.0 mi Calm Calm - N/A   Clear